Weather in Pribrezhnoye

Russia / Kaliningrad Oblast     54°42′04″N   20°37′30″E
temp.,
°C
wind,
m/s
gust,
m/s
humid.,
%
clouds,
%
prec.,
mm/h
press.,
hPa
HPBL,
m
14 may, fri
fri1423:00+7ene34942 0.0 100364
02:00+6nne229610 0.0 100219
05:00+6nw119436 0.0 100111
08:00+10wnw228777 0.0 1001484
11:00+13sw227366 0.1 1001897
14:00+14w447150 0.3 1002954
17:00+14nw336761 0.0 1002871
20:00+9nnw239058 0.0 100342
15 may, sat
sat1523:00+7nw2295100 0.0 100416
02:00+6sw119432 0.0 100510
05:00+6ssw219314 0.0 100511
08:00+10s228198 0.0 1006177
11:00+14ssw348093 0.0 1006750
14:00+13wsw458675 0.7 1007568
17:00+12w3691100 0.3 1008404
20:00+10ene1192100 0.3 100810
16 may, sun
sun1623:00+9se33965 0.0 100842
02:00+8se369640 0.0 1008104
05:00+9se3793100 0.0 1007162
08:00+11se3891100 0.1 1007264
11:00+12se3992100 0.1 1007432
14:00+17s4675100 0.6 1005953
17:00+12n2297100 7.6 100488
20:00+12ese2298100 10.9 100346
17 may, mon
mon1723:00+12wnw2698100 3.4 1003182
02:00+11sw2297100 4.4 100345
05:00+10sw2397100 0.4 100474
08:00+13ssw35845 0.5 1005346
11:00+16ssw46745 1.8 10051033
14:00+16ssw577471 4.5 10051157
17:00+16ssw357789 1.8 1004820
20:00+12s3388100 3.6 100448
18 may, tue
tue1823:00+10s339399 0.3 100451
02:00+8s339425 0.3 100442
05:00+8ssw239579 0.1 100467
08:00+12sw3592100 0.1 1004446
11:00+14wsw568390 1.3 1005956
14:00+14wsw5776100 3.1 10061256
17:00+14wnw358131 1.4 1007829
20:00+10nw34936 2.3 100896